Location: Unspecified
(49.2170°N, 0.0000°E)
Time: 04:19:34
(UTC+00:00)

Transit 4A - Pass Details

Date: 17 June 2019
Orbit: 863 x 981 km, 66.8° (Epoch: 22 August)

Event Time Altitude Azimuth Distance (km) Brightness Sun altitude
Rises 09:59:29 0° 221° (SW) 3,610 11.0 54.9°
Reaches altitude 10° 10:02:00 10° 224° (SW) 2,683 10.4 55.2°
Maximum altitude 10:08:18 72° 309° (NW) 1,024 8.8 56.0°
Drops below altitude 10° 10:14:44 10° 34° (NNE) 2,742 10.4 56.8°
Sets 10:17:20 0° 36° (NE) 3,695 11.0 57.1°
